Location: Ladysmith
(45.4630°N, 91.1040°W)
Time: 16:00:57
(UTC-05:00)

Amateur Radio Satellites - All Passes

Search period start: 01 September 2014 15:30
Search period end: 02 September 2014 15:30
Location: Ladysmith, 45.4630°N, 91.1040°W

Satellite Date Start Highest point End Downlink Frequencies (MHz)
Time Altitude Azimuth
MaSat-1 01 Sep 15:30:46 15:33:35 15° 321° (NW) 15:36:25 437.345 MHz
UOSAT-12 01 Sep 15:37:14 15:40:01 16° 251° (WSW) 15:42:47 437.025 FM, 437.400 FM
ITAMSAT 1 01 Sep 15:47:13 15:50:37 18° 269° (W) 15:54:03 435.822 SSB
Uribyol 2 01 Sep 15:57:47 16:00:16 14° 272° (W) 16:02:47 436.500 FM
RS-15 01 Sep 15:57:56 16:08:55 64° 47° (NE) 16:20:15 29.354 - 29.394 USB, Beacon 29.352 USB
ISS 01 Sep 16:02:33 16:05:54 90° 36° (NE) 16:09:14 145.800 FM
TMSAT-1 01 Sep 16:04:35 16:09:23 35° 264° (W) 16:14:13 436.925 FM
Uosat F 01 Sep 16:12:55 16:17:51 65° 72° (ENE) 16:22:50 435.120 FM
Sapphire 01 Sep 16:20:02 16:24:38 29° 110° (ESE) 16:29:15 437.095 MHz 1200 baud AX-25 AFSK
AO-7 01 Sep 16:33:14 16:41:35 80° 253° (WSW) 16:49:57 29.400 - 29.500 MHz
JAS-2 01 Sep 16:39:43 16:43:23 18° 60° (ENE) 16:46:52 435.800 - 435.900 CW/SSB, 435.910 FM
JAS-1B 01 Sep 16:41:22 16:47:21 18° 274° (W) 16:53:00 435.800 - 435.900 CW/SSB
PCSat 01 Sep 16:48:28 16:53:43 53° 116° (ESE) 16:59:00 145.825 MHz
Hamsat 01 Sep 17:38:51 17:42:57 43° 71° (ENE) 17:47:06 145.90 MHz
OPAL 01 Sep 17:39:23 17:44:35 64° 104° (ESE) 17:49:45 ?
ISS 01 Sep 17:40:18 17:42:13 15° 226° (SW) 17:44:08 145.800 FM
Uosat F 01 Sep 17:53:56 17:57:06 17° 269° (W) 18:00:17 435.120 FM
Sapphire 01 Sep 18:02:38 18:07:50 48° 309° (NW) 18:13:06 437.095 MHz 1200 baud AX-25 AFSK
RS-15 01 Sep 18:10:44 18:20:53 44° 250° (WSW) 18:31:25 29.354 - 29.394 USB, Beacon 29.352 USB
JAS-2 01 Sep 18:21:59 18:28:01 77° 256° (WSW) 18:33:28 435.800 - 435.900 CW/SSB, 435.910 FM
AO-7 01 Sep 18:30:38 18:35:38 17° 272° (W) 18:40:41 29.400 - 29.500 MHz
PCSat 01 Sep 18:32:42 18:37:25 29° 316° (NW) 18:42:10 145.825 MHz
SO-67 01 Sep 18:43:14 18:46:13 27° 70° (ENE) 18:49:13 435.3500 MHz FM
Hamsat 01 Sep 19:15:58 19:19:07 20° 268° (W) 19:22:18 145.90 MHz
OPAL 01 Sep 19:19:11 19:23:00 21° 302° (WNW) 19:26:48 ?
STRAND 1 01 Sep 19:26:39 19:31:25 38° 98° (E) 19:36:09 ?
Sapphire 01 Sep 19:50:12 19:52:40 13° 332° (NNW) 19:55:08 437.095 MHz 1200 baud AX-25 AFSK
HO-68 01 Sep 19:50:50 19:56:52 31° 58° (ENE) 20:02:54 435.675 MHz FM
JAS-2 01 Sep 20:13:02 20:13:52 10° 273° (W) 20:14:42 435.800 - 435.900 CW/SSB, 435.910 FM
SO-67 01 Sep 20:16:44 20:19:18 19° 267° (W) 20:21:52 435.3500 MHz FM
MaSat-1 01 Sep 20:31:30 20:32:41 11° 34° (NE) 20:33:49 437.345 MHz
STRAND 1 01 Sep 21:06:05 21:10:29 30° 295° (WNW) 21:14:53 ?
UKube-1 01 Sep 21:10:45 21:14:55 47° 70° (ENE) 21:19:05 145.840 MHz, 145.915 MHz
Oscar 11 01 Sep 21:14:53 21:18:45 32° 68° (ENE) 21:22:39 145.825 FM, Beacon 2401.500 USB
HO-68 01 Sep 21:37:06 21:44:09 61° 257° (WSW) 21:51:14 435.675 MHz FM
Saudisat 1A 01 Sep 21:45:03 21:48:19 21° 113° (ESE) 21:51:36 436.775 MHz
FUNcube-1 01 Sep 21:46:53 21:50:28 28° 67° (ENE) 21:54:08 145.950 - 145.970 MHz USB
MaSat-1 01 Sep 22:06:21 22:10:56 53° 57° (ENE) 22:14:54 437.345 MHz
KITSAT 1 01 Sep 22:28:01 22:34:34 28° 106° (ESE) 22:41:06 435.175 FM
AO-40 01 Sep 22:42:26 03:58:26 35° 159° (SSE) 05:40:54 Beacon 2401.320
UKube-1 01 Sep 22:48:22 22:51:22 18° 268° (W) 22:54:22 145.840 MHz, 145.915 MHz
Oscar 11 01 Sep 22:51:19 22:54:58 26° 266° (W) 22:58:39 145.825 FM, Beacon 2401.500 USB
FUNcube-1 01 Sep 23:23:09 23:26:49 29° 265° (W) 23:30:35 145.950 - 145.970 MHz USB
Sapphire 01 Sep 23:23:15 23:25:10 12° 26° (NNE) 23:27:06 437.095 MHz 1200 baud AX-25 AFSK
Saudisat 1A 01 Sep 23:23:16 23:27:34 52° 311° (NW) 23:31:54 436.775 MHz
HO-68 01 Sep 23:32:45 23:33:18 10° 277° (W) 23:33:51 435.675 MHz FM
MaSat-1 01 Sep 23:44:29 23:47:20 17° 259° (W) 23:49:57 437.345 MHz
PCSat 01 Sep 23:51:41 23:55:08 17° 34° (NE) 23:58:35 145.825 MHz
KITSAT 1 02 Sep 00:21:10 00:29:15 74° 306° (NW) 00:37:23 435.175 FM
Sapphire 02 Sep 01:05:01 01:10:09 41° 49° (NE) 01:15:16 437.095 MHz 1200 baud AX-25 AFSK
Saudisat 1A 02 Sep 01:06:15 01:08:10 13° 332° (NNW) 01:10:05 436.775 MHz
PCSat 02 Sep 01:34:08 01:39:35 69° 56° (NE) 01:44:59 145.825 MHz
Oscar 19 02 Sep 01:39:20 01:43:05 20° 91° (E) 01:46:48 437.125 CW, 437.150 USB
Oscar 10/S400 02 Sep 02:13:17 03:14:42 42° 218° (SW) 08:48:17 145.825 - 145.975 CW/USB, Beacon 145.810 USB
Oscar 16 02 Sep 02:13:51 02:18:46 41° 98° (E) 02:23:39 437.025 USB, Beacon 2401.1428
ITAMSAT 1 02 Sep 02:17:08 02:20:49 19° 91° (E) 02:24:28 435.822 SSB
KITSAT 1 02 Sep 02:19:34 02:26:07 26° 331° (NNW) 02:32:41 435.175 FM
SO-50 02 Sep 02:25:37 02:27:40 13° 108° (ESE) 02:29:44 436.795 FM
Uribyol 2 02 Sep 02:26:05 02:30:18 25° 93° (E) 02:34:30 436.500 FM
JAS-1B 02 Sep 02:31:52 02:37:20 27° 90° (E) 02:42:14 435.800 - 435.900 CW/SSB
TMSAT-1 02 Sep 02:41:02 02:42:01 11° 86° (E) 02:43:01 436.925 FM
AO-27 02 Sep 02:46:05 02:50:50 35° 97° (E) 02:55:33 436.795 MHz FM
Sapphire 02 Sep 02:48:37 02:53:31 35° 248° (WSW) 02:58:23 437.095 MHz 1200 baud AX-25 AFSK
Oscar 19 02 Sep 03:17:42 03:22:49 58° 289° (WNW) 03:27:53 437.125 CW, 437.150 USB
PCSat 02 Sep 03:18:41 03:22:26 19° 254° (WSW) 03:26:10 145.825 MHz
OPAL 02 Sep 03:19:25 03:23:15 22° 58° (ENE) 03:27:08 ?
AO-Echo 02 Sep 03:25:51 03:30:35 89° 104° (ESE) 03:35:19 ?
Gurwin Techsat 1B 02 Sep 03:27:43 03:32:42 39° 97° (E) 03:37:39 435.225 FM
Oscar 16 02 Sep 03:53:31 03:57:58 29° 296° (WNW) 04:02:23 437.025 USB, Beacon 2401.1428
ITAMSAT 1 02 Sep 03:55:36 04:00:42 60° 289° (WNW) 04:05:48 435.822 SSB
SO-50 02 Sep 04:03:03 04:07:32 81° 307° (NW) 04:12:10 436.795 FM
Uribyol 2 02 Sep 04:05:02 04:10:00 47° 291° (WNW) 04:14:57 436.500 FM
UOSAT-12 02 Sep 04:11:39 04:13:40 13° 108° (ESE) 04:15:42 437.025 FM, 437.400 FM
TMSAT-1 02 Sep 04:17:28 04:22:48 79° 104° (ESE) 04:28:06 436.925 FM
Uosat F 02 Sep 04:19:37 04:22:46 17° 90° (E) 04:25:54 435.120 FM
KITSAT 1 02 Sep 04:19:55 04:24:52 17° 1° (N) 04:29:48 435.175 FM
JAS-1B 02 Sep 04:21:56 04:28:30 51° 294° (WNW) 04:34:12 435.800 - 435.900 CW/SSB
AO-27 02 Sep 04:25:42 04:30:18 33° 294° (WNW) 04:34:54 436.795 MHz FM
AO-7 02 Sep 04:32:51 04:39:59 31° 95° (E) 04:47:03 29.400 - 29.500 MHz
OPAL 02 Sep 04:56:43 05:01:43 58° 257° (WSW) 05:06:50 ?
AO-Echo 02 Sep 05:06:45 05:08:40 12° 303° (WNW) 05:10:35 ?
Gurwin Techsat 1B 02 Sep 05:07:56 05:12:33 31° 295° (WNW) 05:17:09 435.225 FM
STRAND 1 02 Sep 05:10:15 05:11:29 11° 54° (NE) 05:12:44 ?
SO-50 02 Sep 05:45:51 05:48:52 17° 328° (NNW) 05:51:56 436.795 FM
UOSAT-12 02 Sep 05:48:28 05:53:07 87° 306° (NW) 05:57:51 437.025 FM, 437.400 FM
Uosat F 02 Sep 05:57:03 06:02:01 65° 288° (WNW) 06:06:58 435.120 FM
TMSAT-1 02 Sep 05:58:48 06:02:04 17° 302° (WNW) 06:05:20 436.925 FM
Saudisat 1A 02 Sep 06:08:36 06:12:41 35° 45° (NE) 06:16:44 436.775 MHz
JAS-1B 02 Sep 06:16:20 06:17:15 10° 318° (NW) 06:18:08 435.800 - 435.900 CW/SSB
KITSAT 1 02 Sep 06:16:49 06:23:32 27° 31° (NNE) 06:30:13 435.175 FM
AO-7 02 Sep 06:25:07 06:33:18 66° 295° (WNW) 06:41:27 29.400 - 29.500 MHz
RS-15 02 Sep 06:26:42 06:35:23 28° 103° (ESE) 06:43:56 29.354 - 29.394 USB, Beacon 29.352 USB
STRAND 1 02 Sep 06:44:42 06:49:45 69° 73° (ENE) 06:54:50 ?
Hamsat 02 Sep 06:58:03 07:02:24 66° 101° (E) 07:06:41 145.90 MHz
JAS-2 02 Sep 07:12:45 07:18:02 76° 103° (ESE) 07:23:44 435.800 - 435.900 CW/SSB, 435.910 FM
UOSAT-12 02 Sep 07:30:41 07:33:58 19° 327° (NNW) 07:37:17 437.025 FM, 437.400 FM
SO-67 02 Sep 07:37:39 07:40:31 24° 95° (E) 07:43:22 435.3500 MHz FM
Uosat F 02 Sep 07:39:39 07:39:51 10° 307° (NW) 07:40:03 435.120 FM
Saudisat 1A 02 Sep 07:48:17 07:52:13 32° 243° (WSW) 07:56:09 436.775 MHz
KITSAT 1 02 Sep 08:12:06 08:20:14 80° 55° (NE) 08:28:19 435.175 FM
AO-7 02 Sep 08:19:31 08:24:35 18° 317° (NW) 08:29:39 29.400 - 29.500 MHz
STRAND 1 02 Sep 08:26:22 08:29:27 16° 270° (W) 08:32:33 ?
RS-15 02 Sep 08:35:20 08:46:25 85° 306° (NW) 08:57:26 29.354 - 29.394 USB, Beacon 29.352 USB
Hamsat 02 Sep 08:35:29 08:37:50 15° 299° (WNW) 08:40:11 145.90 MHz
JAS-2 02 Sep 08:59:25 09:02:39 17° 301° (WNW) 09:05:59 435.800 - 435.900 CW/SSB, 435.910 FM
HO-68 02 Sep 09:03:02 09:08:35 24° 92° (E) 09:14:06 435.675 MHz FM
SO-67 02 Sep 09:10:45 09:13:29 22° 292° (WNW) 09:16:12 435.3500 MHz FM
KITSAT 1 02 Sep 10:08:35 10:14:47 25° 256° (WSW) 10:20:58 435.175 FM
ISS 02 Sep 10:22:45 10:26:00 56° 146° (SE) 10:29:17 145.800 FM
UKube-1 02 Sep 10:32:42 10:37:02 64° 102° (ESE) 10:41:20 145.840 MHz, 145.915 MHz
Oscar 11 02 Sep 10:35:55 10:40:10 48° 99° (E) 10:44:22 145.825 FM, Beacon 2401.500 USB
HO-68 02 Sep 10:49:47 10:56:55 73° 291° (WNW) 11:04:02 435.675 MHz FM
RS-15 02 Sep 10:50:42 11:00:30 36° 334° (NNW) 11:10:21 29.354 - 29.394 USB, Beacon 29.352 USB
SO-50 02 Sep 10:52:27 10:56:36 29° 41° (NE) 11:00:48 436.795 FM
FUNcube-1 02 Sep 11:09:08 11:13:31 45° 99° (E) 11:17:56 145.950 - 145.970 MHz USB
JAS-1B 02 Sep 11:35:17 11:36:13 10° 42° (NE) 11:37:08 435.800 - 435.900 CW/SSB
MaSat-1 02 Sep 11:57:20 12:00:32 17° 101° (ESE) 12:03:48 437.345 MHz
Oscar 16 02 Sep 11:57:47 11:59:36 12° 54° (NE) 12:01:25 437.025 USB, Beacon 2401.1428
ISS 02 Sep 11:59:45 12:02:52 36° 345° (NNW) 12:05:59 145.800 FM
UKube-1 02 Sep 12:10:16 12:12:45 15° 300° (WNW) 12:15:13 145.840 MHz, 145.915 MHz
Oscar 11 02 Sep 12:12:55 12:16:01 19° 297° (WNW) 12:19:06 145.825 FM, Beacon 2401.500 USB
AO-27 02 Sep 12:31:49 12:32:56 11° 53° (NE) 12:34:02 436.795 MHz FM
SO-50 02 Sep 12:32:46 12:37:24 50° 240° (WSW) 12:42:05 436.795 FM
UOSAT-12 02 Sep 12:36:29 12:40:30 26° 40° (NE) 12:44:29 437.025 FM, 437.400 FM
HO-68 02 Sep 12:39:10 12:43:28 17° 311° (NW) 12:47:45 435.675 MHz FM
FUNcube-1 02 Sep 12:46:10 12:49:38 22° 295° (WNW) 12:53:08 145.950 - 145.970 MHz USB
Oscar 19 02 Sep 12:58:05 13:02:45 36° 66° (ENE) 13:07:27 437.125 CW, 437.150 USB
AO-Echo 02 Sep 13:04:00 13:07:31 20° 62° (ENE) 13:10:59 ?
RS-15 02 Sep 13:07:56 13:17:02 29° 9° (N) 13:26:17 29.354 - 29.394 USB, Beacon 29.352 USB
Gurwin Techsat 1B 02 Sep 13:15:02 13:17:10 13° 55° (NE) 13:19:18 435.225 FM
JAS-1B 02 Sep 13:16:09 13:24:43 40° 63° (ENE) 13:32:19 435.800 - 435.900 CW/SSB
MaSat-1 02 Sep 13:31:56 13:36:56 72° 300° (WNW) 13:42:06 437.345 MHz
Oscar 16 02 Sep 13:32:54 13:38:03 74° 73° (ENE) 13:43:14 437.025 USB, Beacon 2401.1428
ITAMSAT 1 02 Sep 13:37:02 13:41:44 37° 66° (ENE) 13:46:26 435.822 SSB
ISS 02 Sep 13:37:15 13:40:11 28° 5° (N) 13:43:06 145.800 FM
Uribyol 2 02 Sep 13:45:59 13:50:52 46° 69° (ENE) 13:55:48 436.500 FM
AO-7 02 Sep 13:46:58 13:50:58 15° 39° (NE) 13:54:57 29.400 - 29.500 MHz
TMSAT-1 02 Sep 14:02:19 14:06:22 23° 62° (ENE) 14:10:25 436.925 FM
AO-27 02 Sep 14:06:21 14:11:28 66° 72° (ENE) 14:16:37 436.795 MHz FM
UOSAT-12 02 Sep 14:16:20 14:20:58 55° 239° (WSW) 14:25:31 437.025 FM, 437.400 FM
Oscar 19 02 Sep 14:37:29 14:42:06 32° 264° (W) 14:46:45 437.125 CW, 437.150 USB
AO-Echo 02 Sep 14:41:01 14:45:56 57° 259° (W) 14:50:43 ?
Gurwin Techsat 1B 02 Sep 14:50:57 14:56:14 76° 73° (ENE) 15:01:34 435.225 FM
JAS-1B 02 Sep 15:05:24 15:14:56 60° 259° (W) 15:23:23 435.800 - 435.900 CW/SSB
MaSat-1 02 Sep 15:11:51 15:14:52 15° 320° (NW) 15:17:53 437.345 MHz
ISS 02 Sep 15:14:02 15:17:20 61° 24° (NNE) 15:20:39 145.800 FM
Oscar 16 02 Sep 15:14:58 15:17:58 15° 271° (W) 15:20:58 437.025 USB, Beacon 2401.1428
ITAMSAT 1 02 Sep 15:16:41 15:21:15 31° 264° (W) 15:25:51 435.822 SSB
